Time,TemperatureF,DewpointF,PressureIn,WindDirection,WindDirectionDegrees,WindSpeedMPH,WindSpeedGustMPH,Humidity,HourlyPrecipIn,Conditions,Clouds,dailyrainin,SoftwareType,DateUTC
2013-05-24 00:11:00,42.0,10.0,-100.00,WNW,293,4.0,10.0,26,0.00,,,0.00,,2013-05-24 07:11:00,
2013-05-24 00:22:00,42.0,10.0,-100.00,WNW,293,4.0,10.0,26,0.00,,,0.00,,2013-05-24 07:22:00,
2013-05-24 00:31:00,42.0,10.0,-100.00,WNW,293,4.0,10.0,26,0.00,,,0.00,,2013-05-24 07:31:00,
2013-05-24 00:41:00,42.0,10.0,-100.00,WNW,293,4.0,10.0,26,0.00,,,0.00,,2013-05-24 07:41:00,
2013-05-24 00:52:00,42.0,10.0,-100.00,WNW,293,4.0,10.0,26,0.00,,,0.00,,2013-05-24 07:52:00,
2013-05-24 01:11:00,42.0,15.0,-100.00,NW,304,4.0,10.0,33,0.00,,,0.00,,2013-05-24 08:11:00,
2013-05-24 01:22:00,42.0,15.0,-100.00,NW,304,4.0,10.0,33,0.00,,,0.00,,2013-05-24 08:22:00,
2013-05-24 01:32:00,42.0,15.0,-100.00,NW,304,4.0,10.0,33,0.00,,,0.00,,2013-05-24 08:32:00,
2013-05-24 01:41:00,42.0,15.0,-100.00,NW,304,4.0,10.0,33,0.00,,,0.00,,2013-05-24 08:41:00,
2013-05-24 01:51:00,42.0,15.0,-100.00,NW,304,4.0,10.0,33,0.00,,,0.00,,2013-05-24 08:51:00,
2013-05-24 02:11:00,41.0,19.0,-100.00,NNW,334,3.0,8.0,41,0.00,,,0.00,,2013-05-24 09:11:00,
2013-05-24 02:21:00,41.0,19.0,-100.00,NNW,334,3.0,8.0,41,0.00,,,0.00,,2013-05-24 09:21:00,
2013-05-24 02:32:00,41.0,19.0,-100.00,NNW,334,3.0,8.0,41,0.00,,,0.00,,2013-05-24 09:32:00,
2013-05-24 02:42:00,41.0,19.0,-100.00,NNW,334,3.0,8.0,41,0.00,,,0.00,,2013-05-24 09:42:00,
2013-05-24 02:52:00,41.0,19.0,-100.00,NNW,334,3.0,8.0,41,0.00,,,0.00,,2013-05-24 09:52:00,
2013-05-24 03:12:00,39.0,22.0,-100.00,ENE,63,2.0,7.0,51,0.00,,,0.00,,2013-05-24 10:12:00,
2013-05-24 03:22:00,39.0,22.0,-100.00,ENE,63,2.0,7.0,51,0.00,,,0.00,,2013-05-24 10:22:00,
2013-05-24 03:32:00,39.0,22.0,-100.00,ENE,63,2.0,7.0,51,0.00,,,0.00,,2013-05-24 10:32:00,
2013-05-24 03:42:00,39.0,22.0,-100.00,ENE,63,2.0,7.0,51,0.00,,,0.00,,2013-05-24 10:42:00,
2013-05-24 03:52:00,39.0,22.0,-100.00,ENE,63,2.0,7.0,51,0.00,,,0.00,,2013-05-24 10:52:00,
2013-05-24 04:12:00,34.0,22.0,-100.00,ESE,119,2.0,5.0,60,0.00,,,0.00,,2013-05-24 11:12:00,
2013-05-24 04:22:00,34.0,22.0,-100.00,ESE,119,2.0,5.0,60,0.00,,,0.00,,2013-05-24 11:22:00,
2013-05-24 04:41:00,34.0,22.0,-100.00,ESE,119,2.0,5.0,60,0.00,,,0.00,,2013-05-24 11:41:00,
2013-05-24 04:51:00,34.0,22.0,-100.00,ESE,119,2.0,5.0,60,0.00,,,0.00,,2013-05-24 11:51:00,
2013-05-24 05:11:00,34.0,24.0,-100.00,ESE,121,2.0,4.0,67,0.00,,,0.00,,2013-05-24 12:11:00,
2013-05-24 05:21:00,34.0,24.0,-100.00,ESE,121,2.0,4.0,67,0.00,,,0.00,,2013-05-24 12:21:00,
2013-05-24 05:42:00,34.0,24.0,-100.00,ESE,121,2.0,4.0,67,0.00,,,0.00,,2013-05-24 12:42:00,
2013-05-24 05:51:00,34.0,24.0,-100.00,ESE,121,2.0,4.0,67,0.00,,,0.00,,2013-05-24 12:51:00,
2013-05-24 06:11:00,33.0,24.0,-100.00,ESE,115,2.0,3.0,70,0.00,,,0.00,,2013-05-24 13:11:00,
2013-05-24 06:21:00,33.0,24.0,-100.00,ESE,115,2.0,3.0,70,0.00,,,0.00,,2013-05-24 13:21:00,
2013-05-24 07:11:00,34.0,23.0,-100.00,ESE,123,2.0,3.0,65,-99.99,,,0.00,,2013-05-24 14:11:00,
2013-05-24 07:21:00,34.0,23.0,-100.00,ESE,123,2.0,3.0,65,-99.99,,,0.00,,2013-05-24 14:21:00,
2013-05-24 08:11:00,45.0,25.0,-100.00,ENE,74,1.0,4.0,45,-99.99,,,0.00,,2013-05-24 15:11:00,
2013-05-24 08:21:00,45.0,25.0,-100.00,ENE,74,1.0,4.0,45,-99.99,,,0.00,,2013-05-24 15:21:00,
2013-05-24 08:32:00,45.0,25.0,-100.00,ENE,74,1.0,4.0,45,-99.99,,,0.00,,2013-05-24 15:32:00,
2013-05-24 08:43:00,45.0,25.0,-100.00,ENE,74,1.0,4.0,45,-99.99,,,0.00,,2013-05-24 15:43:00,
2013-05-24 08:52:00,45.0,25.0,-100.00,ENE,74,1.0,4.0,45,-99.99,,,0.00,,2013-05-24 15:52:00,
2013-05-24 09:12:00,49.0,25.0,-100.00,WNW,292,3.0,5.0,38,0.00,,,0.00,,2013-05-24 16:12:00,
2013-05-24 09:22:00,49.0,25.0,-100.00,WNW,292,3.0,5.0,38,0.00,,,0.00,,2013-05-24 16:22:00,
2013-05-24 09:32:00,49.0,25.0,-100.00,WNW,292,3.0,5.0,38,0.00,,,0.00,,2013-05-24 16:32:00,
2013-05-24 09:42:00,49.0,25.0,-100.00,WNW,292,3.0,5.0,38,0.00,,,0.00,,2013-05-24 16:42:00,
2013-05-24 09:52:00,49.0,25.0,-100.00,WNW,292,3.0,5.0,38,0.00,,,0.00,,2013-05-24 16:52:00,
2013-05-24 10:12:00,55.0,29.0,-100.00,West,280,3.0,7.0,36,0.00,,,0.00,,2013-05-24 17:12:00,
2013-05-24 10:22:00,55.0,29.0,-100.00,West,280,3.0,7.0,36,0.00,,,0.00,,2013-05-24 17:22:00,
2013-05-24 10:32:00,55.0,29.0,-100.00,West,280,3.0,7.0,36,0.00,,,0.00,,2013-05-24 17:32:00,
2013-05-24 10:41:00,55.0,29.0,-100.00,West,280,3.0,7.0,36,0.00,,,0.00,,2013-05-24 17:41:00,
2013-05-24 10:52:00,55.0,29.0,-100.00,West,280,3.0,7.0,36,0.00,,,0.00,,2013-05-24 17:52:00,
2013-05-24 11:11:00,60.0,28.0,-100.00,WNW,302,5.0,10.0,30,0.00,,,0.00,,2013-05-24 18:11:00,
2013-05-24 11:21:00,60.0,28.0,-100.00,WNW,302,5.0,10.0,30,0.00,,,0.00,,2013-05-24 18:21:00,
2013-05-24 11:32:00,60.0,28.0,-100.00,WNW,302,5.0,10.0,30,0.00,,,0.00,,2013-05-24 18:32:00,
2013-05-24 11:41:00,60.0,28.0,-100.00,WNW,302,5.0,10.0,30,0.00,,,0.00,,2013-05-24 18:41:00,
2013-05-24 11:51:00,60.0,28.0,-100.00,WNW,302,5.0,10.0,30,0.00,,,0.00,,2013-05-24 18:51:00,
2013-05-24 12:11:00,60.0,28.0,-100.00,West,268,5.0,10.0,30,0.00,,,0.00,,2013-05-24 19:11:00,
2013-05-24 12:21:00,60.0,28.0,-100.00,West,268,5.0,10.0,30,0.00,,,0.00,,2013-05-24 19:21:00,
2013-05-24 12:31:00,60.0,28.0,-100.00,West,268,5.0,10.0,30,0.00,,,0.00,,2013-05-24 19:31:00,
2013-05-24 12:41:00,60.0,28.0,-100.00,West,268,5.0,10.0,30,0.00,,,0.00,,2013-05-24 19:41:00,
2013-05-24 12:52:00,60.0,28.0,-100.00,West,268,5.0,10.0,30,0.00,,,0.00,,2013-05-24 19:52:00,
2013-05-24 13:11:00,63.0,31.0,-100.00,West,268,5.0,9.0,30,0.00,,,0.00,,2013-05-24 20:11:00,
2013-05-24 13:21:00,63.0,31.0,-100.00,West,268,5.0,9.0,30,0.00,,,0.00,,2013-05-24 20:21:00,
2013-05-24 13:32:00,63.0,31.0,-100.00,West,268,5.0,9.0,30,0.00,,,0.00,,2013-05-24 20:32:00,
2013-05-24 13:41:00,63.0,31.0,-100.00,West,268,5.0,9.0,30,0.00,,,0.00,,2013-05-24 20:41:00,
2013-05-24 13:51:00,63.0,31.0,-100.00,West,268,5.0,9.0,30,0.00,,,0.00,,2013-05-24 20:51:00,
2013-05-24 14:11:00,64.0,34.0,-100.00,WNW,289,5.0,10.0,33,0.00,,,0.00,,2013-05-24 21:11:00,
2013-05-24 14:21:00,64.0,34.0,-100.00,WNW,289,5.0,10.0,33,0.00,,,0.00,,2013-05-24 21:21:00,
2013-05-24 14:32:00,64.0,34.0,-100.00,WNW,289,5.0,10.0,33,0.00,,,0.00,,2013-05-24 21:32:00,
2013-05-24 14:42:00,64.0,34.0,-100.00,WNW,289,5.0,10.0,33,0.00,,,0.00,,2013-05-24 21:42:00,
2013-05-24 14:52:00,64.0,34.0,-100.00,WNW,289,5.0,10.0,33,0.00,,,0.00,,2013-05-24 21:52:00,
2013-05-24 15:12:00,63.0,34.0,-100.00,West,268,5.0,10.0,34,0.00,,,0.00,,2013-05-24 22:12:00,
2013-05-24 15:22:00,63.0,34.0,-100.00,West,268,5.0,10.0,34,0.00,,,0.00,,2013-05-24 22:22:00,
2013-05-24 15:32:00,63.0,34.0,-100.00,West,268,5.0,10.0,34,0.00,,,0.00,,2013-05-24 22:32:00,
2013-05-24 15:42:00,63.0,34.0,-100.00,West,268,5.0,10.0,34,0.00,,,0.00,,2013-05-24 22:42:00,
2013-05-24 15:52:00,63.0,34.0,-100.00,West,268,5.0,10.0,34,0.00,,,0.00,,2013-05-24 22:52:00,
2013-05-24 16:11:00,63.0,33.0,-100.00,WNW,294,4.0,9.0,33,0.00,,,0.00,,2013-05-24 23:11:00,
2013-05-24 16:22:00,63.0,33.0,-100.00,WNW,294,4.0,9.0,33,0.00,,,0.00,,2013-05-24 23:22:00,
2013-05-24 16:32:00,63.0,33.0,-100.00,WNW,294,4.0,9.0,33,0.00,,,0.00,,2013-05-24 23:32:00,
2013-05-24 16:42:00,63.0,33.0,-100.00,WNW,294,4.0,9.0,33,0.00,,,0.00,,2013-05-24 23:42:00,
2013-05-24 16:52:00,63.0,33.0,-100.00,WNW,294,4.0,9.0,33,0.00,,,0.00,,2013-05-24 23:52:00,
2013-05-24 17:11:00,61.0,33.0,-100.00,West,280,6.0,10.0,35,0.00,,,0.00,,2013-05-25 00:11:00,
2013-05-24 17:21:00,61.0,33.0,-100.00,West,280,6.0,10.0,35,0.00,,,0.00,,2013-05-25 00:21:00,
2013-05-24 17:32:00,61.0,33.0,-100.00,West,280,6.0,10.0,35,0.00,,,0.00,,2013-05-25 00:32:00,
2013-05-24 17:41:00,61.0,33.0,-100.00,West,280,6.0,10.0,35,0.00,,,0.00,,2013-05-25 00:41:00,
2013-05-24 17:51:00,61.0,33.0,-100.00,West,280,6.0,10.0,35,0.00,,,0.00,,2013-05-25 00:51:00,
2013-05-24 18:11:00,58.0,29.0,-100.00,WNW,292,5.0,11.0,33,0.00,,,0.00,,2013-05-25 01:11:00,
2013-05-24 18:22:00,58.0,29.0,-100.00,WNW,292,5.0,11.0,33,0.00,,,0.00,,2013-05-25 01:22:00,
2013-05-24 18:32:00,58.0,29.0,-100.00,WNW,292,5.0,11.0,33,0.00,,,0.00,,2013-05-25 01:32:00,
2013-05-24 18:41:00,58.0,29.0,-100.00,WNW,292,5.0,11.0,33,0.00,,,0.00,,2013-05-25 01:41:00,
2013-05-24 18:52:00,58.0,29.0,-100.00,WNW,292,5.0,11.0,33,0.00,,,0.00,,2013-05-25 01:52:00,
2013-05-24 19:11:00,55.0,30.0,-100.00,WNW,302,6.0,11.0,38,0.00,,,0.00,,2013-05-25 02:11:00,
2013-05-24 19:21:00,55.0,30.0,-100.00,WNW,302,6.0,11.0,38,0.00,,,0.00,,2013-05-25 02:21:00,
2013-05-24 19:31:00,55.0,30.0,-100.00,WNW,302,6.0,11.0,38,0.00,,,0.00,,2013-05-25 02:31:00,
2013-05-24 19:42:00,55.0,30.0,-100.00,WNW,302,6.0,11.0,38,0.00,,,0.00,,2013-05-25 02:42:00,
2013-05-24 19:51:00,55.0,30.0,-100.00,WNW,302,6.0,11.0,38,0.00,,,0.00,,2013-05-25 02:51:00,
2013-05-24 19:53:00,51.0,24.0,-100.00,NW,304,6.0,12.0,35,0.00,,,0.00,,2013-05-25 02:53:00,
2013-05-24 20:11:00,51.0,24.0,-100.00,NW,304,6.0,12.0,35,0.00,,,0.00,,2013-05-25 03:11:00,
2013-05-24 20:21:00,51.0,24.0,-100.00,NW,304,6.0,12.0,35,0.00,,,0.00,,2013-05-25 03:21:00,
2013-05-24 20:32:00,51.0,24.0,-100.00,NW,304,6.0,12.0,35,0.00,,,0.00,,2013-05-25 03:32:00,
2013-05-24 20:43:00,51.0,24.0,-100.00,NW,304,6.0,12.0,35,0.00,,,0.00,,2013-05-25 03:43:00,
2013-05-24 21:12:00,49.0,21.0,-100.00,West,267,4.0,9.0,33,0.00,,,0.00,,2013-05-25 04:12:00,
2013-05-24 21:23:00,49.0,21.0,-100.00,West,267,4.0,9.0,33,0.00,,,0.00,,2013-05-25 04:23:00,
2013-05-24 21:32:00,49.0,21.0,-100.00,West,267,4.0,9.0,33,0.00,,,0.00,,2013-05-25 04:32:00,
2013-05-24 21:43:00,49.0,21.0,-100.00,West,267,4.0,9.0,33,0.00,,,0.00,,2013-05-25 04:43:00,
2013-05-24 21:52:00,49.0,21.0,-100.00,West,267,4.0,9.0,33,0.00,,,0.00,,2013-05-25 04:52:00,
2013-05-24 22:12:00,49.0,23.0,-100.00,WNW,303,5.0,11.0,35,0.00,,,-99.99,,2013-05-25 05:12:00,
2013-05-24 22:22:00,49.0,23.0,-100.00,WNW,303,5.0,11.0,35,0.00,,,-99.99,,2013-05-25 05:22:00,
2013-05-24 22:32:00,49.0,23.0,-100.00,WNW,303,5.0,11.0,35,0.00,,,-99.99,,2013-05-25 05:32:00,
2013-05-24 22:42:00,49.0,23.0,-100.00,WNW,303,5.0,11.0,35,0.00,,,-99.99,,2013-05-25 05:42:00,
2013-05-24 22:52:00,49.0,23.0,-100.00,WNW,303,5.0,11.0,35,0.00,,,-99.99,,2013-05-25 05:52:00,
2013-05-24 23:12:00,49.0,23.0,-100.00,WNW,286,4.0,10.0,35,0.00,,,0.00,,2013-05-25 06:12:00,
2013-05-24 23:21:00,49.0,23.0,-100.00,WNW,286,4.0,10.0,35,0.00,,,0.00,,2013-05-25 06:21:00,
2013-05-24 23:32:00,49.0,23.0,-100.00,WNW,286,4.0,10.0,35,0.00,,,0.00,,2013-05-25 06:32:00,
2013-05-24 23:42:00,49.0,23.0,-100.00,WNW,286,4.0,10.0,35,0.00,,,0.00,,2013-05-25 06:42:00,
2013-05-24 23:51:00,49.0,23.0,-100.00,WNW,286,4.0,10.0,35,0.00,,,0.00,,2013-05-25 06:51:00,